Location: ??
(35.4627°N, 139.3695°E)
Time: 15:51:58
(UTC+00:00)

CZ-4B R/B - Pass Details

Date: 25 November 2020
Orbit: 389 x 458 km, 97.6° (Epoch: 21 January)

Event Time Altitude Azimuth Distance (km) Brightness Sun altitude
Rises 19:14:37 0° 151° (SSE) 2,350 5.5 -26.9°
Reaches altitude 10° 19:16:43 10° 142° (SE) 1,479 4.6 -26.5°
Enters shadow 19:18:31 26° 117° (ESE) 848 3.4 -26.1°
